Terminal Aerodrome Forecast
Issued by NWS Houston/Galveston TX

Home | Current Version | Previous Version | Text Only | Print | Product List | Glossary On
Versions: 1 2 3 4 5 6 7 8 9 10 11 12 13 14 15 16 17 18 19 20 21 22 23 24 25 26 27 28 29 30 31 32 33 34 35 36 37 38 39 40 41 42 43 44 45 46 47 48 49 50
000
FTUS44 KHGX 260149
TAFHOU
TAFHOU
TAF AMD
KHOU 260149Z 2602/2624 15010KT P6SM -TSRA SCT020 BKN035CB OVC090
      TEMPO 2603/2605 VRB40KT 1SM +TSRA SCT010 BKN025CB
     FM260500 15006KT P6SM VCTS SCT030CB BKN050
     FM260900 17010KT P6SM SCT015 BKN025
     FM261500 18011G16KT P6SM VCSH BKN025
     FM261800 16014KT P6SM VCTS BKN035CB=

USA.gov is the U.S. government's official web portal to all federal, state and local government web resources and services.